TimeEDT,TemperatureF,Dew PointF,Humidity,Sea Level PressureIn,VisibilityMPH,Wind Direction,Wind SpeedMPH,Gust SpeedMPH,PrecipitationIn,Events,Conditions,WindDirDegrees,DateUTC
12:51 AM,36.0,32.0,86,30.18,-9999.0,WSW,5.8,-,N/A,,Unknown,250,2012-10-13 04:51:00
1:51 AM,39.9,32.0,73,30.16,-9999.0,WSW,4.6,-,N/A,,Unknown,240,2012-10-13 05:51:00
2:51 AM,44.1,28.9,55,30.14,-9999.0,SW,5.8,-,N/A,,Unknown,230,2012-10-13 06:51:00
3:51 AM,45.0,27.0,49,30.12,-9999.0,WSW,8.1,-,N/A,,Unknown,240,2012-10-13 07:51:00
4:51 AM,45.0,27.0,49,30.09,-9999.0,SW,5.8,-,N/A,,Unknown,230,2012-10-13 08:51:00
5:51 AM,45.0,28.0,52,30.06,-9999.0,SW,6.9,-,N/A,,Unknown,230,2012-10-13 09:51:00
6:51 AM,46.0,28.0,50,30.02,-9999.0,SW,12.7,18.4,N/A,,Unknown,220,2012-10-13 10:51:00
7:51 AM,46.0,34.0,63,29.99,-9999.0,SW,13.8,20.7,N/A,,Unknown,220,2012-10-13 11:51:00
8:51 AM,46.0,35.1,66,29.96,-9999.0,SW,4.6,-,N/A,,Unknown,220,2012-10-13 12:51:00
9:51 AM,46.0,37.9,73,29.93,-9999.0,SSW,8.1,-,N/A,,Unknown,210,2012-10-13 13:51:00
10:51 AM,44.1,41.0,89,29.91,-9999.0,SW,9.2,18.4,0.01,,Unknown,220,2012-10-13 14:51:00
11:51 AM,44.1,43.0,96,29.88,-9999.0,SW,8.1,17.3,0.02,,Unknown,220,2012-10-13 15:51:00
12:51 PM,45.0,43.0,93,29.87,-9999.0,SW,5.8,-,0.02,,Unknown,220,2012-10-13 16:51:00
1:51 PM,45.0,43.0,93,29.84,-9999.0,Variable,6.9,-,0.01,,Unknown,0,2012-10-13 17:51:00
2:51 PM,46.0,44.1,93,29.79,-9999.0,WSW,4.6,-,N/A,,Unknown,250,2012-10-13 18:51:00
3:51 PM,46.9,43.0,86,29.77,-9999.0,Variable,3.5,-,N/A,,Unknown,0,2012-10-13 19:51:00
4:51 PM,46.0,43.0,89,29.76,-9999.0,Variable,3.5,-,N/A,,Unknown,0,2012-10-13 20:51:00
5:51 PM,46.0,43.0,89,29.75,-9999.0,Calm,Calm,-,N/A,,Unknown,0,2012-10-13 21:51:00
6:51 PM,46.0,42.1,86,29.76,-9999.0,North,8.1,-,N/A,,Unknown,360,2012-10-13 22:51:00
7:51 PM,46.0,43.0,89,29.77,-9999.0,North,6.9,-,N/A,,Unknown,10,2012-10-13 23:51:00
8:51 PM,46.0,43.0,89,29.77,-9999.0,NNE,6.9,-,N/A,,Unknown,20,2012-10-14 00:51:00
10:51 PM,46.0,42.1,86,29.80,-9999.0,NNE,5.8,-,N/A,,Unknown,20,2012-10-14 02:51:00
11:51 PM,46.0,41.0,83,29.81,-9999.0,NNE,5.8,-,N/A,,Unknown,30,2012-10-14 03:51:00